Kansas Department of Transportation
RWIS(Road and Runway Information System) Map and Weather Data





Station
Surface
Air
Wind
Site IDSensor TypeLocationTemperature (°F)Temperature (°F)Humidity (%)Speed (mi/h)Gusts (mi/h)DirectionTime
123002AtmosphericBonner Springs 617412NSep 21 2020 11:10PM
123002ApproachBonner Springs68     Sep 21 2020 11:10PM
123002DeckBonner Springs68     Sep 21 2020 11:10PM
123014AtmosphericBull Creek 647622SESep 21 2020 11:10PM
123014DeckBull Creek66     Sep 21 2020 11:10PM
123014DepartureBull Creek66     Sep 21 2020 11:10PM
123015AtmosphericLeavenworth 647311WSep 21 2020 11:10PM
123015DeckLeavenworth66     Sep 21 2020 11:10PM
123015DepartureLeavenworth68     Sep 21 2020 11:10PM
123020AtmosphericMayetta 647068SESep 21 2020 11:10PM
123020RoadwayMayettaUnavailable     Sep 21 2020 11:10PM
123020DeckMayettaUnavailable     Sep 21 2020 11:10PM
505000AtmosphericKTA 1 64900NSep 21 2020 11:00PM
505000ApproachKTA 172     Sep 21 2020 11:00PM
505000DeckKTA 170     Sep 21 2020 11:00PM
505001AtmosphericKTA 2 648611SESep 21 2020 11:00PM
505001ApproachKTA 272     Sep 21 2020 11:00PM
505001DeckKTA 272     Sep 21 2020 11:00PM
505002AtmosphericKTA 3 619900SSep 21 2020 11:00PM
505002ApproachKTA 372     Sep 21 2020 11:00PM
505002DeckKTA 372     Sep 21 2020 11:00PM
505003AtmosphericKTA 4 646824NSep 21 2020 11:00PM
505003ApproachKTA 4Unavailable     Sep 21 2020 11:00PM
505003DeckKTA 4Unavailable     Sep 21 2020 11:00PM
505004AtmosphericKTA 5 619944SWSep 21 2020 11:00PM
505004RoadwayKTA 5Unavailable     Sep 21 2020 11:00PM
505004RoadwayKTA 5Unavailable     Sep 21 2020 11:00PM
505005AtmosphericKTA 6 598912ESESep 21 2020 11:00PM
505005Approach KTA 670     Sep 21 2020 11:00PM
505005DeckKTA 670     Sep 21 2020 11:00PM
505006AtmosphericKTA 7 648824SSESep 21 2020 11:00PM
505006ApproachKTA 7Unavailable     Sep 21 2020 11:00PM
505006DeckKTA 770     Sep 21 2020 11:00PM
505007AtmosphericKTA 8 648046SSESep 21 2020 11:00PM
505007ApproachKTA 8Unavailable     Sep 21 2020 11:00PM
505007DeckKTA 870     Sep 21 2020 11:00PM
505008AtmosphericKTA 9 618711WSWSep 21 2020 11:00PM
505008ApproachKTA 973     Sep 21 2020 11:00PM
505008DeckKTA 970     Sep 21 2020 11:00PM
505009AtmosphericKTA 10 649901NESep 21 2020 11:00PM
505009ApproachKTA 10Unavailable     Sep 21 2020 11:00PM
505009DeckKTA 1066     Sep 21 2020 11:00PM
505010AtmosphericWebb 648123ESep 21 2020 11:10PM
505010DeckWebb70     Sep 21 2020 11:10PM
505010NullWebb70     Sep 21 2020 11:10PM
505014AtmosphericI-135 686626SSESep 21 2020 11:05PM
505014ApproachI-13573     Sep 21 2020 11:10PM
505014DeckI-13572     Sep 21 2020 11:10PM
540000AtmosphericBlue Rapids 638312NESep 21 2020 11:10PM
540000DeckBlue Rapids70     Sep 21 2020 11:10PM
540000DepartureBlue RapidsUnavailable     Sep 21 2020 11:10PM
540001AtmosphericSabetha 617824SSep 21 2020 11:10PM
540001ApproachSabethaUnavailable     Sep 21 2020 11:10PM
540001DeckSabethaUnavailable     Sep 21 2020 11:10PM
540002AtmosphericWestgate 666334SESep 21 2020 11:10PM
540002DeckWestgate70     Sep 21 2020 11:10PM
540002DepartureWestgateUnavailable     Sep 21 2020 11:10PM
540003AtmosphericEmporia      Sep 21 2020 7:10PM
540003ApproachEmporia      Sep 21 2020 7:10PM
540003DeckEmporia      Sep 21 2020 7:10PM
540007AtmosphericManhattan 666712SSWSep 21 2020 11:10PM
540007DepartureManhattan72     Sep 21 2020 11:10PM
540007DeckManhattan72     Sep 21 2020 11:10PM
541000AtmosphericElkhart      Sep 21 2020 6:45PM
541000ApproachElkhart      Sep 21 2020 6:45PM
541000DeckElkhart      Sep 21 2020 6:45PM
541000DeckElkhart      Sep 21 2020 6:45PM
541003AtmosphericFord 598244SESep 21 2020 11:10PM
541003DeckFordUnavailable     Sep 21 2020 11:10PM
541003DepartureFord66     Sep 21 2020 11:10PM
541004AtmosphericScott 9067912WSep 21 2020 11:10PM
541004DepartureScott70     Sep 21 2020 11:10PM
541005AtmosphericNess 597146SSESep 21 2020 11:10PM
541005DeckNess68     Sep 21 2020 11:10PM
541005DepartureNess68     Sep 21 2020 11:10PM
541007AtmosphericGarden City 6172911SESep 21 2020 11:10PM
541007ApproachGarden City      Sep 21 2020 11:10PM
541007DeckGarden CityUnavailable     Sep 21 2020 11:10PM
543000AtmosphericJunction City 645935NNESep 21 2020 11:10PM
543000ApproachJunction City70     Sep 21 2020 11:10PM
543000DeckJunction City70     Sep 21 2020 11:10PM
543001AtmosphericEllsworth 6473812SSep 21 2020 11:10PM
543001RoadwayEllsworth68     Sep 21 2020 11:10PM
543002AtmosphericMcPherson 637867SSep 21 2020 11:10PM
543002ApproachMcPherson68     Sep 21 2020 11:10PM
543002DeckMcPherson68     Sep 21 2020 11:10PM
543003AtmosphericSalina 665044NESep 21 2020 11:10PM
543003DepartureSalina72     Sep 21 2020 11:10PM
543003RoadwaySalina70     Sep 21 2020 11:10PM
543004AtmosphericConcordia 64735 SSESep 21 2020 11:10PM
543004ApproachConcordiaUnavailable     Sep 21 2020 11:10PM
543004DeckConcordiaUnavailable     Sep 21 2020 11:10PM
543005AtmosphericPeabody 638200SSWSep 21 2020 11:10PM
543005ApproachPeabody68     Sep 21 2020 11:10PM
543005DeckPeabodyUnavailable     Sep 21 2020 11:10PM
560000AtmosphericEdson 645447SSep 21 2020 11:10PM
560000RoadwayEdson70     Sep 21 2020 11:10PM
560000RoadwayEdson70     Sep 21 2020 11:10PM
560001AtmosphericOakley 6657911SSESep 21 2020 11:10PM
560001ApproachOakley68     Sep 21 2020 11:10PM
560001DeckOakley68     Sep 21 2020 11:10PM
560002AtmosphericAtwood 7047410SSep 21 2020 11:10PM
560002ApproachAtwood73     Sep 21 2020 11:10PM
560002DeckAtwoodUnavailable     Sep 21 2020 11:10PM
560003AtmosphericJennings 616223SSWSep 21 2020 11:10PM
560003ApproachJennings72     Sep 21 2020 11:10PM
560003DeckJennings68     Sep 21 2020 11:10PM
560003DeckJennings68     Sep 21 2020 11:10PM
560004AtmosphericWakeeney 6371610SSep 21 2020 11:10PM
560004ApproachWakeeney66     Sep 21 2020 11:10PM
560004DeckWakeeney66     Sep 21 2020 11:10PM
560005AtmosphericWalker 636758SSep 21 2020 11:10PM
560005ApproachWalker68     Sep 21 2020 11:10PM
560005DeckWalker66     Sep 21 2020 11:10PM
560006AtmosphericBow Creek(Stockton) 646247SSep 21 2020 11:10PM
560006ApproachBow Creek(Stockton)70     Sep 21 2020 11:10PM
560006DeckBow Creek(Stockton)142     Sep 21 2020 11:10PM
560007AtmosphericLebanon 556434SSESep 21 2020 11:10PM
560007ApproachLebanonUnavailable     Sep 21 2020 11:10PM
560007DeckLebanon66     Sep 21 2020 11:10PM
560008AtmosphericWallace 6453711SSep 21 2020 11:10PM
560008ApproachWallaceUnavailable     Sep 21 2020 11:10PM
560008DeckWallace70     Sep 21 2020 11:10PM
572000AtmosphericGreat Bend 636667SSESep 21 2020 11:10PM
572000ApproachGreat BendUnavailable     Sep 21 2020 11:10PM
572000DeckGreat Bend66     Sep 21 2020 11:10PM
572001AtmosphericPratt 633600ESESep 21 2020 11:10PM
572001ApproachPratt70     Sep 21 2020 11:10PM
572001DeckPratt70     Sep 21 2020 11:10PM
572002AtmosphericAnthony 667236SSep 21 2020 11:10PM
572002ApproachAnthony118     Sep 21 2020 11:10PM
572002DeckAnthony113     Sep 21 2020 11:10PM
573000AtmosphericEureka 599012NWSep 21 2020 11:10PM
573000DeckEureka70     Sep 21 2020 11:10PM
573000DepartureEureka68     Sep 21 2020 11:10PM
573001AtmosphericGarnett 598211NNESep 21 2020 11:10PM
573001ApproachGarnettUnavailable     Sep 21 2020 11:10PM
573001DeckGarnettUnavailable     Sep 21 2020 11:10PM
573003AtmosphericChetopa 619310ESep 21 2020 11:10PM
573003DeckChetopa70     Sep 21 2020 11:10PM
573003DeckChetopa70     Sep 21 2020 11:10PM
573003DepartureChetopaUnavailable     Sep 21 2020 11:10PM
573004AtmosphericChanute 618612ENESep 21 2020 11:10PM
573004ApproachChanute72     Sep 21 2020 11:10PM
573004DeckChanute70     Sep 21 2020 11:10PM